Tracking 19795 objects as of 18-Jul-2019
HD Live streaming from Space Station
objects crossing your sky now

AUREOLE 1

Track AUREOLE 1 now!
10-day predictions
AUREOLE 1 is classified as:


NORAD ID: 5729
Int'l Code: 1971-119A
Perigee: 394.8 km
Apogee: 1,575.1 km
Inclination: 74.0 °
Period: 104.6 minutes
Semi major axis: 7355 km
RCS: 2.1591 m2 (large)
Launch date: December 27, 1971
Source: France (FR)
Launch site: PLESETSK MISSILE AND SPACE COMPLEX (PKMTR)
aabbcc
Your satellite tracking list
Your tracking list is empty




NASA's NSSDC Master Catalog

Two Line Element Set (TLE):
1  5729U 71119A   19198.88222691  .00000561  00000-0  45762-4 0  9998
2  5729  73.9578  95.3319 0802288  97.3508 271.9423 13.76093920292218
Source of the keplerian elements: AFSPC